Date String (YYYY-MM-DD hh:mm:ss) UTC,Instrument flags,Ambient pressure (hPa),Sample flow (lpm),Bypass flow (lpm),Sample temperature (°C),Ambient temperature (°C),ASC tube jacket temperature (°C),LED temperature (°C),Box temperature (°C),Sample RH (%),Span deviation,Mass concentration (μg/m³),Mass concentration (μg/m³),Mass concentration (μg/m³)
DateTimeUTC,F1_M11,P_M11,Q1_M11,Q2_M11,T1_M11,T2_M11,T3_M11,T4_M11,T5_M11,U1_M11,ZSPAN_M11,X2_M11,X0_M11,X1_M11
2022-12-10 09:00:00,,0824.6,5.00,0.00,22.0,20.8,00.0,30.8,23.9,07.2,0000.0,0000.96,0002.92,0000.74
2022-12-10 09:01:00,,0824.6,4.99,0.00,22.0,20.8,00.0,30.9,23.9,07.1,0000.0,0000.98,0002.96,0000.74
2022-12-10 09:02:00,,0824.6,4.99,0.00,22.0,20.8,00.0,30.9,23.9,07.1,0000.0,0001.00,0002.99,0000.74
2022-12-10 09:03:00,,0824.7,5.00,0.00,22.0,20.8,00.0,30.9,23.9,07.1,0000.0,0001.00,0002.80,0000.73
2022-12-10 09:04:00,,0824.6,5.01,0.00,22.0,20.8,00.0,30.9,23.9,07.2,0000.0,0001.01,0001.71,0000.73
2022-12-10 09:05:00,,0824.7,5.01,0.00,22.0,20.8,00.0,30.9,23.9,07.1,0000.0,0001.03,0001.75,0000.73
2022-12-10 09:06:00,,0824.7,4.99,0.00,22.0,20.7,00.0,30.9,23.9,07.2,0000.0,0001.03,0002.28,0000.74
2022-12-10 09:07:00,,0824.7,4.99,0.00,22.1,21.1,00.0,30.8,24.0,07.2,0000.0,0001.02,0002.62,0000.74
2022-12-10 09:08:00,,0824.8,5.01,0.00,22.2,22.0,00.0,30.9,24.1,07.1,0000.0,0000.99,0002.54,0000.73
2022-12-10 09:09:00,,0824.9,5.01,0.00,22.2,22.2,00.0,30.9,24.2,07.2,0000.0,0001.03,0002.68,0000.74
2022-12-10 09:10:00,,0824.9,5.02,0.00,22.2,21.8,00.0,30.9,24.2,07.3,0000.0,0001.04,0003.01,0000.74
2022-12-10 09:11:00,,0824.9,4.99,0.00,22.2,21.5,00.0,31.0,24.1,07.3,0000.0,0001.03,0003.00,0000.75
2022-12-10 09:12:00,,0824.9,4.99,0.00,22.2,21.2,00.0,31.0,24.1,07.2,0000.0,0001.01,0002.92,0000.75
2022-12-10 09:13:00,,0824.9,4.99,0.00,22.2,21.1,00.0,31.0,24.1,07.3,0000.0,0000.97,0002.83,0000.75
2022-12-10 09:14:00,,0824.9,5.02,0.00,22.2,20.9,00.0,31.0,24.0,07.3,0000.0,0000.98,0002.86,0000.77
2022-12-10 09:15:00,,0825.0,5.00,0.00,22.2,20.9,00.0,31.0,24.0,07.3,0000.0,0001.01,0003.67,0000.77
2022-12-10 09:16:00,,0824.9,4.99,0.00,22.2,20.8,00.0,31.0,24.0,07.2,0000.0,0001.05,0004.45,0000.80
2022-12-10 09:17:00,,0824.9,4.99,0.00,22.2,20.7,00.0,31.0,24.0,07.2,0000.0,0001.09,0004.02,0000.82
2022-12-10 09:18:00,,0824.9,5.03,0.00,22.1,20.7,00.0,31.0,24.0,07.3,0000.0,0001.13,0003.63,0000.85
2022-12-10 09:19:00,,0824.9,5.00,0.00,22.1,20.7,00.0,31.0,24.0,07.3,0000.0,0001.17,0003.75,0000.88
2022-12-10 09:20:00,,0824.9,4.99,0.00,22.1,20.6,00.0,31.0,23.9,07.3,0000.0,0001.20,0004.12,0000.90
2022-12-10 09:21:00,,0824.9,4.99,0.00,22.1,20.6,00.0,30.9,23.9,07.3,0000.0,0001.25,0003.99,0000.92
2022-12-10 09:22:00,,0824.9,5.03,0.00,22.1,20.5,00.0,30.9,23.9,07.3,0000.0,0001.34,0004.12,0000.96
2022-12-10 09:23:00,,0824.9,4.99,0.00,22.1,20.5,00.0,30.9,23.9,07.2,0000.0,0001.40,0004.33,0001.00
2022-12-10 09:24:00,,0824.9,4.98,0.00,22.0,20.4,00.0,30.9,23.8,07.2,0000.0,0001.49,0004.48,0001.07
2022-12-10 09:25:00,,0824.9,5.01,0.00,22.0,20.4,00.0,30.9,23.8,07.2,0000.0,0001.62,0004.92,0001.14
2022-12-10 09:26:00,,0824.9,5.01,0.00,22.0,20.3,00.0,30.9,23.8,07.1,0000.0,0001.71,0004.68,0001.21
2022-12-10 09:27:00,,0824.9,4.97,0.00,22.0,20.3,00.0,30.9,23.8,07.0,0000.0,0001.82,0003.98,0001.26
2022-12-10 09:28:00,,0824.9,4.99,0.00,22.0,20.3,00.0,30.9,23.8,06.8,0000.0,0001.92,0004.14,0001.34
2022-12-10 09:29:00,,0824.9,5.02,0.00,21.9,20.1,00.0,30.8,23.7,06.7,0000.0,0002.04,0004.39,0001.41
2022-12-10 09:30:00,,0824.9,4.98,0.00,21.9,20.0,00.0,30.8,23.6,06.8,0000.0,0002.12,0004.53,0001.47
2022-12-10 09:31:00,,0824.9,5.01,0.00,21.9,20.0,00.0,30.8,23.5,07.0,0000.0,0002.24,0004.64,0001.55
2022-12-10 09:32:00,,0824.9,5.01,0.00,21.8,20.0,00.0,30.8,23.5,07.1,0000.0,0002.32,0004.62,0001.61
2022-12-10 09:33:00,,0824.9,4.99,0.00,21.9,20.9,00.0,30.7,23.7,07.0,0000.0,0002.38,0004.74,0001.67
2022-12-10 09:34:00,,0825.0,4.99,0.00,22.0,21.8,00.0,30.8,23.9,07.0,0000.0,0002.50,0004.87,0001.73
2022-12-10 09:35:00,,0824.9,5.00,0.00,22.0,21.6,00.0,30.8,24.0,07.0,0000.0,0002.63,0005.10,0001.79
2022-12-10 09:36:00,,0824.9,5.01,0.00,22.0,21.3,00.0,30.8,23.9,07.0,0000.0,0002.71,0005.21,0001.84
2022-12-10 09:37:00,,0824.9,5.01,0.00,22.0,21.0,00.0,30.8,23.8,07.0,0000.0,0002.76,0005.25,0001.89
2022-12-10 09:38:00,,0825.0,4.98,0.00,22.0,20.7,00.0,30.8,23.8,06.9,0000.0,0002.76,0005.43,0001.93
2022-12-10 09:39:00,,0825.0,4.99,0.00,22.0,20.6,00.0,30.8,23.7,07.0,0000.0,0002.81,0006.73,0001.94
2022-12-10 09:40:00,,0825.0,5.03,0.00,22.0,20.5,00.0,30.8,23.7,07.1,0000.0,0002.82,0006.82,0001.95
2022-12-10 09:41:00,,0825.0,5.00,0.00,21.9,20.3,00.0,30.8,23.7,07.1,0000.0,0002.82,0006.81,0001.96
2022-12-10 09:42:00,,0824.9,4.99,0.00,21.9,20.3,00.0,30.8,23.7,07.1,0000.0,0002.80,0006.74,0001.96
2022-12-10 09:43:00,,0825.1,4.99,0.00,21.9,20.3,00.0,30.8,23.7,07.1,0000.0,0002.79,0006.69,0001.97
2022-12-10 09:44:00,,0825.2,5.03,0.00,21.9,20.3,00.0,30.8,23.7,07.1,0000.0,0002.81,0006.64,0001.99
2022-12-10 09:45:00,,0825.2,4.99,0.00,21.9,20.3,00.0,30.7,23.7,07.0,0000.0,0002.83,0006.78,0001.99
2022-12-10 09:46:00,,0825.2,4.98,0.00,21.9,20.3,00.0,30.7,23.7,07.1,0000.0,0002.85,0006.86,0002.00
2022-12-10 09:47:00,,0825.2,5.01,0.00,21.9,20.4,00.0,30.7,23.7,07.1,0000.0,0002.81,0007.18,0002.00
2022-12-10 09:48:00,,0825.1,5.01,0.00,21.9,20.4,00.0,30.7,23.7,07.1,0000.0,0002.82,0007.95,0001.99
2022-12-10 09:49:00,,0825.1,4.98,0.00,21.9,20.5,00.0,30.7,23.7,07.0,0000.0,0002.84,0007.91,0001.99
2022-12-10 09:50:00,,0825.1,4.98,0.00,21.9,20.5,00.0,30.7,23.7,07.1,0000.0,0002.86,0007.45,0002.00
2022-12-10 09:51:00,,0825.1,5.01,0.00,21.9,20.5,00.0,30.7,23.7,07.1,0000.0,0002.86,0007.05,0002.01
2022-12-10 09:52:00,,0825.1,5.02,0.00,21.9,20.5,00.0,30.7,23.7,07.1,0000.0,0002.86,0007.03,0002.02
2022-12-10 09:53:00,,0825.1,4.98,0.00,21.8,20.4,00.0,30.7,23.7,07.1,0000.0,0002.93,0007.29,0002.03
2022-12-10 09:54:00,,0825.1,4.98,0.00,21.8,20.4,00.0,30.7,23.6,07.1,0000.0,0002.99,0007.50,0002.04
2022-12-10 09:55:00,,0825.2,5.02,0.00,21.8,20.4,00.0,30.7,23.6,07.1,0000.0,0003.07,0008.19,0002.06
2022-12-10 09:56:00,,0825.2,5.01,0.00,21.8,20.3,00.0,30.7,23.6,07.2,0000.0,0003.06,0008.40,0002.07
2022-12-10 09:57:00,,0825.2,4.99,0.00,21.8,20.3,00.0,30.7,23.6,07.2,0000.0,0003.04,0008.47,0002.09
2022-12-10 09:58:00,,0825.2,4.99,0.00,21.8,20.3,00.0,30.7,23.6,07.2,0000.0,0003.10,0008.70,0002.11
2022-12-10 09:59:00,,0825.3,5.02,0.00,21.9,21.0,00.0,30.7,23.8,07.2,0000.0,0003.07,0008.03,0002.12
